Temp
66 65 65 64 64 63 62 62 62 60 61 59 57 56 55 51 50 49 48 47 44 43
66 65 64 64 64 63 62 61 56 58 59 57 55 55 52 51 47 45 43 42 42 41
65 65 66 63 63 63 62 59 57 56 57 55 54 52 51 47 45 44 42 40 39 38
63 63 63 64 63 63 62 58 57 56 54 52 51 50 49 46 42 44 42 40 39 37
57 57 60 62 63 60 58 56 56 53 51 51 50 48 48 45 44 44 41 40 39 37
52 53 54 56 54 52 51 50 49 49 49 48 48 46 46 47 43 41 42 41 40 39
49 50 51 51 51 49 48 47 47 47 47 46 45 46 44 44 42 41 40 40 39 39
45 46 45 45 44 44 44 44 44 43 43 43 44 44 43 43 41 40 39 38 38 37
43 41 40 39 38 40 40 40 39 39 38 39 43 43 42 41 39 38 37 36 36 36
38 38 37 36 35 35 36 37 37 37 36 37 39 42 41 39 39 38 37 35 34 34
36 35 34 33 33 34 35 35 35 35 36 36 36 41 40 38 36 36 36 35 35 35
35 30 32 29 30 34 33 33 33 33 33 34 33 40 40 37 34 34 33 34 34 34
33 29 28 29 31 32 32 32 32 32 33 33 33 39 39 36 35 33 32 32 32 32
28 27 28 27 26 26 30 31 31 31 32 33 33 35 39 38 34 34 32 32 31 32
MSLP
1017.98 1018.33 1018.61 1019.04 1019.34 1019.69 1019.92 1020.06 1020.16 1020.64 1021.01 1021.37 1021.69 1022.04 1022.52 1023.04 1023.58 1024.03 1024.24 1024.49 1025.09 1025.77
1016.94 1017.32 1017.58 1017.95 1018.33 1018.49 1018.69 1018.96 1019.30 1019.71 1020.17 1020.70 1021.20 1021.48 1021.91 1022.48 1023.16 1023.49 1024.18 1024.50 1024.80 1025.45
1015.82 1016.13 1016.50 1017.09 1017.19 1017.33 1017.42 1017.74 1018.41 1018.96 1019.48 1020.14 1020.66 1021.00 1021.48 1022.10 1022.41 1023.26 1023.72 1024.31 1024.61 1025.14
1015.54 1015.74 1016.03 1016.11 1016.22 1016.49 1016.97 1017.32 1017.90 1018.23 1018.44 1019.10 1019.72 1020.32 1020.95 1021.55 1022.48 1022.78 1023.06 1023.92 1024.38 1024.89
1015.21 1015.49 1015.74 1015.78 1015.97 1016.24 1016.61 1017.03 1017.37 1017.87 1018.33 1018.89 1019.52 1019.96 1020.51 1021.06 1021.82 1022.46 1022.35 1023.70 1023.73 1024.87
1015.48 1015.67 1015.82 1015.89 1016.03 1016.27 1016.53 1016.95 1017.45 1017.93 1018.49 1018.83 1019.35 1020.04 1020.16 1020.56 1021.32 1021.77 1022.77 1023.30 1023.61 1024.04
1015.49 1015.59 1015.73 1015.97 1016.17 1016.63 1017.00 1017.23 1017.58 1017.96 1018.40 1018.66 1019.03 1019.56 1020.09 1020.68 1020.64 1021.52 1021.77 1022.81 1022.54 1023.77
1015.75 1015.81 1015.94 1016.07 1016.26 1016.61 1017.31 1017.57 1017.88 1018.17 1018.29 1018.58 1018.93 1019.24 1019.82 1020.23 1020.86 1021.26 1021.90 1022.05 1022.40 1023.80
1015.68 1016.04 1016.23 1016.40 1016.61 1016.84 1017.16 1017.47 1017.78 1018.06 1018.41 1018.49 1018.72 1019.08 1019.74 1019.75 1020.45 1021.19 1021.80 1022.45 1022.14 1023.20
1016.25 1016.29 1016.47 1016.75 1017.21 1017.60 1017.88 1018.04 1018.11 1018.38 1018.80 1018.81 1018.98 1018.99 1019.59 1019.99 1020.46 1021.23 1021.68 1021.81 1022.69 1023.42
1016.99 1017.43 1017.64 1017.71 1017.67 1017.89 1018.24 1018.45 1018.47 1018.44 1018.64 1018.87 1018.81 1019.14 1019.81 1020.62 1020.69 1021.36 1021.43 1021.81 1022.17 1022.59
1016.94 1017.38 1017.68 1017.85 1018.04 1018.13 1018.22 1018.57 1018.48 1018.46 1019.02 1019.11 1019.15 1019.14 1019.64 1020.16 1020.65 1021.59 1021.97 1022.24 1022.23 1022.10
1017.28 1017.66 1017.84 1018.22 1018.28 1018.31 1018.12 1018.46 1019.01 1018.38 1019.01 1019.12 1019.33 1019.78 1019.90 1020.17 1020.54 1021.13 1021.49 1021.77 1022.18 1022.67
1017.85 1018.14 1018.37 1018.49 1018.61 1018.72 1018.58 1018.85 1019.12 1019.15 1019.32 1019.45 1019.15 1019.38 1019.80 1020.26 1020.41 1020.64 1021.12 1021.51 1022.10 1021.99
Wind_Speed
15 11 12 12 10 9 10 10 10 11 10 10 9 8 7 4 4 3 4 8 6 4
15 16 13 15 12 11 12 10 10 12 13 10 9 9 10 8 7 6 5 5 7 4
15 16 16 11 15 15 14 13 12 13 12 10 9 9 10 6 7 7 5 5 7 5
11 12 13 15 14 15 12 12 13 13 13 12 12 11 10 9 7 10 11 6 7 7
7 6 10 13 13 8 10 9 11 10 10 10 10 11 12 12 10 11 13 10 10 8
5 5 6 5 3 5 6 6 5 6 8 9 10 10 11 12 11 10 9 10 9 11
4 4 4 3 5 5 4 6 6 6 6 7 8 10 10 9 11 10 9 10 11 11
2 2 2 3 2 4 3 1 2 3 4 5 7 7 10 10 10 11 9 10 8 5
4 3 2 1 2 4 5 5 5 6 6 7 6 9 13 12 9 8 9 8 7 6
3 4 4 3 3 2 3 2 4 5 6 6 5 12 15 14 9 9 8 9 7 5
0 2 1 1 3 2 2 4 4 5 5 5 5 13 13 9 4 5 8 8 10 10
3 3 3 3 3 2 2 1 1 2 2 2 1 13 14 13 6 5 4 3 8 9
4 4 4 4 4 2 3 2 2 3 3 3 3 10 13 10 6 7 6 7 6 9
3 2 1 1 2 1 2 2 1 2 1 3 5 8 15 16 6 6 6 6 6 6
Wind_Direction
207 206 210 210 206 209 210 212 209 205 209 208 197 186 180 174 181 191 185 171 166 170
209 211 210 213 204 205 206 204 189 193 206 203 199 188 181 184 185 166 181 184 158 157
209 212 215 205 209 207 205 194 190 194 199 198 195 183 183 183 164 167 167 174 165 161
220 215 213 215 215 215 205 192 199 198 189 190 187 182 185 178 174 179 170 173 168 173
226 216 217 226 228 204 196 196 199 191 189 188 191 186 187 181 189 196 175 185 161 183
247 235 236 231 178 173 161 172 168 173 188 185 187 189 194 189 184 172 198 189 184 179
238 235 227 210 162 164 177 170 173 185 198 193 185 187 179 196 176 188 177 195 169 188
270 223 191 181 160 117 153 166 161 163 173 179 187 190 191 183 186 180 184 178 167 189
169 155 180 180 177 165 179 185 178 192 193 190 202 194 196 176 174 180 177 191 159 171
180 185 187 169 167 213 218 184 209 205 199 207 210 181 183 171 171 176 179 155 153 172
244 299 321 209 213 212 197 225 220 213 208 201 192 179 178 167 131 179 178 178 180 183
193 188 192 201 218 214 184 220 185 139 162 173 164 177 173 163 143 160 177 184 186 177
185 181 185 191 182 165 144 161 175 132 160 156 154 191 182 165 162 176 167 163 179 186
39 55 30 66 35 91 92 96 109 139 143 186 169 183 189 191 188 189 177 184 195 192